Terminal Aerodrome Forecast
Issued by NWS Denver/Boulder, CO

Home | Current Version | Previous Version | Text Only | Print | Product List | Glossary On
Versions: 1 2 3 4 5 6 7 8 9 10 11 12 13 14 15 16 17 18 19 20 21 22 23 24 25 26 27 28 29 30 31 32 33 34 35 36 37 38 39 40 41 42 43 44 45 46 47 48 49 50
000
FTUS45 KBOU 152325
TAFDEN
TAF
KDEN 152325Z 1600/1706 05012KT P6SM FEW070 FEW120
     FM160200 09010KT P6SM FEW120
     FM160500 14009KT P6SM FEW220
     FM161000 18007KT P6SM SCT220
     FM161500 VRB05KT P6SM FEW100 BKN220
     FM161900 03006KT P6SM SCT100 BKN150
     FM170200 20007KT P6SM FEW100 SCT150=

USA.gov is the U.S. government's official web portal to all federal, state and local government web resources and services.